DELTA 1 DEB, 7031

Orbit data source: Space-Track

DELTA 1 DEB, 7031 is space debris in SSO originally from a launch on Tue, 06 Nov 1973 UTC launched from the Air Force Western Test Range (AFWTR). Debris objects in space refer to the collection of defunct objects orbiting the Earth. Examples of debris include non-operational satellites, rocket bodies, and fragments generated from explosions, collisions, or faulty payload assembly.

Loading next visibility...
Identifier
7031, 1973-086X
Orbit
SSO
Country
Flag of USUS
Related business
Manufacturer
Unknown
Mission
Spacecraft
Bus & Motor
Unknown
Mass
Unknown
Launch date (UTC)
1973-11-06 (53 years ago)
Launch vehicle
Unknown
Launch site
Air Force Western Test Range (AFWTR)
Object type
Payload
Rocket body
Debris
Shape & HBR
Unknown shape, 0.2 m
Radar Cross Section
Medium (>0.1 m² and <1 m²)

Expand to show TLE details & history
Last TLE update: 11 hours ago

TLE from 11 hours ago
0 DELTA 1 DEB
1 07031U 73086X   26265.69679238 -.00000009  00000-0  26028-3 0  9997
2 07031 101.8558 225.6918 0010106 239.1347 296.0444 12.38764490390039
Epoch: 2026-09-22T16:43Z
TLE epoch observation values (Epoch: 2026-09-22T16:43:22.861Z)
Latitude
4.74226°
Longitude
154.28098°
Altitude
1,510.414 km
Speed
7.112 km/s
True Right ascension
03h 06m 44s
True Declination
4° 43' 00"
Sunlit
Object was in full shadow at epoch
Visualization orbit readout
Latitude
Unknown
Longitude
Unknown
Altitude
Unknown
Speed
Unknown
Apparent Right ascension
Unknown
Apparent Declination
Unknown
Sunlit
N/A
Visualization observer readout
Local Sidereal Time
21:11:14
Azimuth
Unknown
Elevation
Unknown
Doppler factor
Unknown
Orbital elements
Apogee altitude
1,517.384 km
Perigee altitude
1,501.442 km
Semi-major axis
7,887.55 km
Eccentricity
0.00101
Inclination
101.8558°
RAAN
225.6918°
Arg. of periapsis
239.1347°
True anomaly
295.9403°
Mean anomaly
296.0444°
Eccentric anomaly
295.99235°
Mean motion
3.09835 °/min
Orbital period
116.19 mins
BSTAR
0.00026028
Loading maneuver chart data...
Computing Atmospheric mass density...
Loading historical data...
Loading historical data...
Loading historical data...
Loading historical data...
Loading historical data...
Loading historical data...
Loading historical data...

Documentation

Showing up to 5 results
|